[[{"header":{"parameterUnit":"m.s-1","parameterCategory":1,"la1":30.2991,"la2":30.254,"lo1":-89.0895,"lo2":-89.0444,"dy":0.0017,"dx":0.0017,"nx":28,"ny":28,"refTime":"2023-11-10T09:00:00:Z","depth":0,"parameterNumber":2,"parameterNumberName":"U-component_of_WINDS"},"data":[0,0,0,0,0,0,0,0,0,0,0,0,0,0,0,0,0,0,0,0,0,0,0,0,0,0,0,0,0,0,0,0,0,0,0,0,0,0,0,0,0,0,0,0,0,0,0,0,0,0,0,0,0,0,0,0,0,0,-1.4566,-1.4566,0,-1.4627,-1.4627,-1.4628,-1.4624,-1.4623,-1.4622,-1.4621,-1.4685,-1.4688,-1.469,0,0,0,0,0,0,0,0,0,0,0,0,0,-1.4447,-1.4449,-1.4566,-1.4566,-1.4567,-1.4627,-1.4627,-1.4628,-1.4624,-1.4623,-1.4622,-1.4621,-1.4684,-1.4687,-1.469,0,0,0,0,0,0,0,0,0,0,0,0,0,-1.4502,-1.445,-1.4565,-1.4572,-1.4573,-1.4626,-1.4627,-1.4628,-1.4624,-1.4623,-1.4621,-1.462,-1.4683,-1.4687,-1.4691,-1.4742,0,0,-1.4703,-1.4704,0,0,0,0,0,0,0,0,-1.4499,-1.4506,-1.457,-1.4572,-1.4573,-1.4616,-1.4609,-1.4667,-1.4625,-1.4605,-1.4621,-1.462,-1.4663,-1.4669,-1.4683,-1.4745,-1.4748,-1.4703,-1.4705,-1.4707,-1.4708,0,0,0,0,0,0,0,-1.4495,-1.4504,-1.459,-1.4571,-1.4573,-1.4572,-1.4579,-1.462,-1.4641,-1.4607,-1.4606,-1.4614,-1.4664,-1.468,-1.4685,-1.4748,-1.4703,-1.4706,-1.4709,-1.471,-1.4855,-1.4857,0,0,0,0,0,0,-1.449,-1.4501,-1.4588,-1.4592,-1.4532,-1.4576,-1.4583,-1.4604,-1.4641,-1.4645,-1.4615,-1.4613,-1.4674,-1.468,-1.4687,-1.475,-1.4707,-1.471,-1.4713,-1.4854,-1.4856,-1.4857,0,0,0,0,0,0,-1.4487,-1.4497,-1.4585,-1.4546,-1.4557,-1.4579,-1.4603,-1.4606,-1.4621,-1.4647,-1.4651,-1.4627,-1.4673,-1.4682,-1.4728,-1.4752,-1.4712,-1.4716,-1.4852,-1.4854,-1.4857,-1.4875,0,0,0,0,0,0,-1.4484,-1.4497,-1.4516,-1.4547,-1.4559,-1.4625,-1.4604,-1.4608,-1.4628,-1.4626,-1.4659,-1.4663,-1.4673,-1.4723,-1.4732,-1.4756,-1.4719,-1.485,-1.4853,-1.4856,-1.4872,-1.4877,-1.4882,0,0,0,0,0,-1.4479,-1.4519,-1.4517,-1.4527,-1.4584,-1.4626,-1.4634,-1.4643,-1.463,-1.465,-1.4666,-1.4662,-1.4747,-1.4727,-1.4738,-1.4764,-1.4849,-1.4852,-1.4856,-1.487,-1.4876,-1.4882,0,0,0,0,0,0,-1.449,-1.4523,-1.4521,-1.4571,-1.4596,-1.4626,-1.4651,-1.465,-1.4679,-1.4677,-1.4688,-1.4695,-1.4742,-1.4758,-1.4735,-1.4815,-1.4796,-1.4802,-1.4804,-1.481,-1.4815,-1.481,-1.4722,0,0,0,0,0,-1.4499,-1.453,-1.4557,-1.4599,-1.4611,-1.4629,-1.4648,-1.4653,-1.4679,-1.469,-1.471,-1.4736,-1.4769,-1.479,-1.4821,-1.4874,-1.4882,-1.4897,-1.4902,-1.4906,-1.4911,-1.4941,-1.4948,-1.4869,-1.4869,-1.4869,0,0,-1.4516,-1.4538,-1.4557,-1.4601,-1.4621,-1.4654,-1.4638,-1.4673,-1.4698,-1.4695,-1.4741,-1.4756,-1.4786,-1.4836,-1.4859,-1.485,-1.4934,-1.491,-1.4913,-1.4916,-1.4945,-1.4953,-1.4959,-1.4871,-1.4871,-1.4871,0,0,-1.4565,-1.4584,-1.4621,-1.4641,-1.4671,-1.4683,-1.4692,-1.4722,-1.4732,-1.4777,-1.4776,-1.4806,-1.4862,-1.4883,-1.4902,-1.4959,-1.4957,-1.4968,-1.4994,-1.5023,-1.5029,-1.5035,-1.5056,-1.5063,-1.4973,-1.4973,-1.4973,0,-1.4583,-1.4632,-1.4641,-1.4676,-1.4696,-1.4695,-1.4733,-1.4752,-1.4791,-1.4805,-1.4795,-1.4865,-1.4885,-1.494,-1.4954,-1.4969,-1.498,-1.4965,-1.5028,-1.5033,-1.5039,-1.5059,-1.5067,-1.4975,-1.4975,-1.4974,-1.4974,0,-1.4653,-1.4687,-1.4714,-1.4751,-1.4774,-1.481,-1.4825,-1.4847,-1.485,-1.4863,-1.491,-1.4934,-1.497,-1.4983,-1.4987,-1.504,-1.5033,-1.5025,-1.5006,-1.5047,-1.5067,-1.5074,-1.4977,-1.4976,-1.4976,-1.4975,0,0,-1.4711,-1.4752,-1.4762,-1.4779,-1.4812,-1.4839,-1.4876,-1.4911,-1.493,-1.4957,-1.4989,-1.5036,-1.5029,-1.505,-1.5055,-1.5081,-1.5125,-1.507,-1.507,-1.508,-1.5186,-1.5192,-1.5201,-1.5124,-1.5125,-1.5126,-1.5183,0,-1.4764,-1.4828,-1.4837,-1.4895,-1.4927,-1.4926,-1.4958,-1.4982,-1.4995,-1.5025,-1.5039,-1.5073,-1.506,-1.5073,-1.5098,-1.5114,-1.5147,-1.511,-1.5154,-1.5156,-1.5147,-1.5211,-1.5218,-1.527,-1.5191,-1.5192,-1.5193,0,-1.4834,-1.4862,-1.4923,-1.4952,-1.4966,-1.4994,-1.5028,-1.5055,-1.5083,-1.5091,-1.5114,-1.5117,-1.5156,-1.5135,-1.5189,-1.5164,-1.5183,-1.5194,-1.5196,-1.5201,-1.5177,-1.5218,-1.5287,-1.5295,-1.5205,-1.5204,-1.5203,0,-1.4871,-1.4924,-1.4968,-1.4982,-1.5017,-1.5037,-1.5053,-1.5079,-1.5099,-1.5129,-1.5142,-1.5176,-1.5194,-1.5221,-1.5233,-1.5216,-1.5287,-1.5266,-1.5295,-1.5295,-1.531,-1.5309,-1.5384,-1.5321,-1.5321,-1.5321,-1.532,0,-1.4929,-1.4966,-1.4985,-1.5011,-1.5054,-1.5063,-1.5105,-1.512,-1.5143,-1.5173,-1.5174,-1.5203,-1.5217,-1.5248,-1.5257,-1.5301,-1.5309,-1.5317,-1.532,-1.5318,-1.5317,-1.533,-1.5327,-1.5323,-1.5322,-1.5322,-1.5321,0,-1.4977,-1.4991,-1.5039,-1.5067,-1.5076,-1.5105,-1.513,-1.5157,-1.5169,-1.5207,-1.5217,-1.5237,-1.5273,-1.5288,-1.5332,-1.5339,-1.539,-1.5389,-1.538,-1.5381,-1.5409,-1.5406,-1.5495,-1.5508,-1.5436,-1.5437,-1.5437,0,-1.5014,-1.5043,-1.5075,-1.5095,-1.5111,-1.5143,-1.5164,-1.5175,-1.5197,-1.523,-1.5253,-1.5289,-1.5318,-1.5377,-1.5396,-1.543,-1.543,-1.5459,-1.5436,-1.5433,-1.5432,-1.543,-1.5433,-1.5464,-1.5464,-1.5465,-1.5465,0,-1.5078,-1.5083,-1.5113,-1.5146,-1.5171,-1.5197,-1.5223,-1.5239,-1.5254,-1.5279,-1.5316,-1.5339,-1.5384,-1.542,-1.5455,-1.5472,-1.5472,-1.5473,-1.5481,-1.548,-1.5474,-1.5478,-1.5393,-1.5471,-1.547,-1.547,-1.5469,-1.5469,-1.5122,-1.5148,-1.5174,-1.5208,-1.5228,-1.5252,-1.5278,-1.5294,-1.5325,-1.5362,-1.5367,-1.5406,-1.5434,-1.5481,-1.5499,-1.5531,-1.5523,-1.5536,-1.5539,-1.5542,-1.5544,-1.5468,-1.5537,-1.5537,-1.5537,-1.5537,-1.5537,0,-1.5186,-1.5203,-1.5234,-1.527,-1.5296,-1.5293,-1.5321,-1.5344,-1.5378,-1.5403,-1.5432,-1.5475,-1.551,-1.5532,-1.5567,-1.5589,-1.5589,-1.5598,-1.5597,-1.5601,-1.5548,-1.5538,-1.5596,-1.5596,-1.5596,-1.5596,-1.5596,-1.5596,-1.5223,-1.5266,-1.5275,-1.5328,-1.5345,-1.5384,-1.54,-1.5423,-1.5443,-1.549,-1.5519,-1.5533,-1.5557,-1.5594,-1.5627,-1.5632,-1.5645,-1.5654,-1.566,-1.561,-1.5604,-1.5598,-1.5588,-1.5657,-1.5657,-1.5709,-1.571,-1.571]},{"header":{"parameterUnit":"m.s-1","parameterCategory":1,"la1":30.2991,"la2":30.254,"lo1":-89.0895,"lo2":-89.0444,"dy":0.0017,"dx":0.0017,"nx":28,"ny":28,"refTime":"2023-11-10T09:00:00:Z","depth":0,"parameterNumber":3,"parameterNumberName":"V-component_of_WINDS"},"data":[0,0,0,0,0,0,0,0,0,0,0,0,0,0,0,0,0,0,0,0,0,0,0,0,0,0,0,0,0,0,0,0,0,0,0,0,0,0,0,0,0,0,0,0,0,0,0,0,0,0,0,0,0,0,0,0,0,0,-5.2386,-5.2386,0,-5.2337,-5.2337,-5.2336,-5.2231,-5.2228,-5.2226,-5.2224,-5.2177,-5.2177,-5.2178,0,0,0,0,0,0,0,0,0,0,0,0,0,-5.2391,-5.2392,-5.2386,-5.2386,-5.2385,-5.2337,-5.2337,-5.2336,-5.2231,-5.2228,-5.2226,-5.2223,-5.2176,-5.2177,-5.2178,0,0,0,0,0,0,0,0,0,0,0,0,0,-5.237,-5.2392,-5.2386,-5.2327,-5.2321,-5.2337,-5.2337,-5.2336,-5.2231,-5.2228,-5.2225,-5.2222,-5.2176,-5.2177,-5.2178,-5.2249,0,0,-5.2181,-5.2182,0,0,0,0,0,0,0,0,-5.2372,-5.237,-5.2336,-5.2331,-5.2324,-5.2287,-5.2321,-5.2307,-5.2232,-5.2266,-5.2224,-5.222,-5.2216,-5.2214,-5.2211,-5.2247,-5.2245,-5.2182,-5.2182,-5.2183,-5.2183,0,0,0,0,0,0,0,-5.2373,-5.2372,-5.2367,-5.2336,-5.2329,-5.2303,-5.2297,-5.2318,-5.2259,-5.2262,-5.2255,-5.225,-5.2212,-5.2211,-5.221,-5.2244,-5.2182,-5.2182,-5.2183,-5.2184,-5.2335,-5.2338,0,0,0,0,0,0,-5.2383,-5.2374,-5.2368,-5.2365,-5.2341,-5.2306,-5.2298,-5.2302,-5.2259,-5.2249,-5.2253,-5.2245,-5.221,-5.2208,-5.2207,-5.2287,-5.2183,-5.2184,-5.2184,-5.2332,-5.2336,-5.2339,0,0,0,0,0,0,-5.2384,-5.2384,-5.237,-5.2367,-5.2364,-5.2309,-5.2314,-5.2303,-5.2301,-5.2252,-5.2241,-5.2262,-5.2208,-5.2206,-5.2239,-5.2284,-5.2184,-5.2185,-5.2328,-5.2333,-5.2337,-5.2448,0,0,0,0,0,0,-5.2384,-5.2384,-5.241,-5.2369,-5.2364,-5.2403,-5.2317,-5.2304,-5.2303,-5.2293,-5.2257,-5.2248,-5.2205,-5.2238,-5.224,-5.2284,-5.2186,-5.2323,-5.233,-5.2336,-5.244,-5.2456,-5.247,0,0,0,0,0,-5.2385,-5.2444,-5.2412,-5.2412,-5.2396,-5.2406,-5.2403,-5.2351,-5.2307,-5.2333,-5.2301,-5.225,-5.2279,-5.2243,-5.2244,-5.2289,-5.232,-5.2328,-5.2335,-5.2433,-5.2453,-5.247,0,0,0,0,0,0,-5.2493,-5.2438,-5.2402,-5.2449,-5.2433,-5.2388,-5.2419,-5.2374,-5.237,-5.2361,-5.2297,-5.229,-5.2332,-5.2314,-5.2274,-5.2355,-5.2291,-5.23,-5.2365,-5.2383,-5.2398,-5.2402,-5.2187,0,0,0,0,0,-5.2523,-5.2535,-5.2486,-5.2532,-5.2526,-5.2474,-5.2477,-5.2438,-5.2419,-5.2412,-5.2382,-5.2366,-5.2371,-5.2376,-5.2379,-5.2437,-5.2428,-5.2468,-5.2483,-5.2496,-5.2504,-5.2532,-5.255,-5.2364,-5.2364,-5.2364,0,0,-5.2584,-5.2555,-5.2566,-5.2553,-5.2536,-5.2551,-5.2469,-5.2488,-5.2498,-5.2415,-5.2444,-5.2422,-5.24,-5.2446,-5.2465,-5.2432,-5.2553,-5.2505,-5.2516,-5.2517,-5.2542,-5.256,-5.2575,-5.2369,-5.2368,-5.2368,0,0,-5.2702,-5.2682,-5.2718,-5.2702,-5.2677,-5.2642,-5.2651,-5.2612,-5.2594,-5.2622,-5.256,-5.2572,-5.2582,-5.2569,-5.2564,-5.2677,-5.2629,-5.268,-5.2758,-5.2787,-5.2801,-5.2814,-5.2854,-5.2869,-5.2688,-5.2688,-5.2688,0,-5.2781,-5.28,-5.2743,-5.2765,-5.2761,-5.2685,-5.2722,-5.271,-5.2687,-5.2687,-5.265,-5.2661,-5.2641,-5.2683,-5.271,-5.2709,-5.2717,-5.2683,-5.2804,-5.2816,-5.2827,-5.2864,-5.288,-5.2694,-5.2694,-5.2693,-5.2692,0,-5.2898,-5.2912,-5.2945,-5.2923,-5.2923,-5.2953,-5.2901,-5.2908,-5.2869,-5.2839,-5.2868,-5.2842,-5.2837,-5.2844,-5.2807,-5.288,-5.2861,-5.2815,-5.275,-5.2852,-5.2886,-5.29,-5.2703,-5.2701,-5.2699,-5.2698,0,0,-5.3084,-5.303,-5.3043,-5.3032,-5.2998,-5.3008,-5.3035,-5.3029,-5.3036,-5.3024,-5.3044,-5.3055,-5.3012,-5.3006,-5.2967,-5.2993,-5.3084,-5.2943,-5.2942,-5.297,-5.3162,-5.3197,-5.3215,-5.3052,-5.3055,-5.3057,-5.3164,0,-5.3194,-5.3235,-5.3184,-5.3236,-5.3248,-5.3177,-5.32,-5.3182,-5.3154,-5.3161,-5.313,-5.3138,-5.3081,-5.3077,-5.3099,-5.3068,-5.3121,-5.306,-5.3071,-5.3072,-5.3078,-5.3232,-5.3269,-5.3372,-5.3177,-5.3179,-5.3181,0,-5.3328,-5.332,-5.3374,-5.3336,-5.3339,-5.3361,-5.3351,-5.3359,-5.3337,-5.3315,-5.3309,-5.3261,-5.3285,-5.3222,-5.3254,-5.3213,-5.3215,-5.32,-5.3203,-5.3202,-5.3133,-5.3235,-5.3403,-5.3419,-5.3202,-5.32,-5.3199,0,-5.3457,-5.346,-5.3492,-5.3486,-5.3443,-5.346,-5.3443,-5.3418,-5.3418,-5.341,-5.3409,-5.3405,-5.3403,-5.3401,-5.3354,-5.3313,-5.3392,-5.3325,-5.3374,-5.3376,-5.3394,-5.3393,-5.3565,-5.3396,-5.3396,-5.3395,-5.3395,0,-5.3586,-5.3621,-5.355,-5.357,-5.3607,-5.3549,-5.3588,-5.3564,-5.3542,-5.3557,-5.3495,-5.351,-5.3447,-5.3455,-5.3419,-5.3451,-5.345,-5.3433,-5.3423,-5.3439,-5.3441,-5.3439,-5.343,-5.34,-5.3399,-5.3398,-5.3397,0,-5.3736,-5.369,-5.372,-5.3677,-5.3667,-5.3697,-5.366,-5.3677,-5.3645,-5.3664,-5.3665,-5.3615,-5.3621,-5.3574,-5.3572,-5.3548,-5.3597,-5.3575,-5.3604,-5.3597,-5.3649,-5.3645,-5.3824,-5.3845,-5.3664,-5.3666,-5.3667,0,-5.3821,-5.3846,-5.3806,-5.381,-5.3796,-5.3805,-5.3804,-5.3748,-5.375,-5.3727,-5.3747,-5.3748,-5.3746,-5.376,-5.3724,-5.3722,-5.3699,-5.3762,-5.3698,-5.3713,-5.3699,-5.3698,-5.3701,-5.3776,-5.3778,-5.378,-5.3781,0,-5.3976,-5.3952,-5.3953,-5.3946,-5.3947,-5.3939,-5.3927,-5.3934,-5.3873,-5.3879,-5.3884,-5.3883,-5.388,-5.3882,-5.3873,-5.3856,-5.3809,-5.3801,-5.3813,-5.3829,-5.3844,-5.3836,-5.364,-5.3798,-5.3796,-5.3795,-5.3794,-5.3793,-5.4096,-5.4115,-5.4089,-5.4092,-5.4077,-5.4067,-5.4081,-5.405,-5.4053,-5.4046,-5.4013,-5.4025,-5.4002,-5.3985,-5.3973,-5.3981,-5.3951,-5.3968,-5.3972,-5.3976,-5.3986,-5.3843,-5.398,-5.3979,-5.3979,-5.3978,-5.3978,0,-5.4247,-5.4227,-5.4231,-5.4215,-5.4218,-5.4172,-5.4157,-5.4162,-5.4173,-5.4156,-5.4155,-5.4161,-5.4163,-5.4127,-5.4124,-5.4138,-5.4116,-5.4139,-5.4137,-5.4134,-5.4013,-5.4003,-5.4156,-5.4156,-5.4156,-5.4156,-5.4156,-5.4156,-5.4326,-5.4356,-5.4329,-5.4351,-5.433,-5.434,-5.4335,-5.4326,-5.4312,-5.4322,-5.4322,-5.4299,-5.4274,-5.4269,-5.4268,-5.4258,-5.426,-5.429,-5.4272,-5.416,-5.4143,-5.4126,-5.4117,-5.4291,-5.4291,-5.4392,-5.4393,-5.4394]}]]